RH
31 23 17 13 11 11 12 11 11 10 10 10 10 11 11 11 13 12 11 13 13 13 18 25 29 30 28 27 27 29 29 27 26 26 25 25 24 24 27 29 29 30 32 33 35 35 35 37 39 40 44 47 51 55 57 61 66 64 61 61 61 60 61 64 63 62 61 60 61 63 63 63 62 60 60 62 63 59 58 60 59 59 64 69 78 83 81
17 12 11 11 11 11 10 10 10 10 10 10 11 12 12 13 13 13 13 13 14 15 17 23 30 30 26 25 26 26 26 27 26 26 27 27 27 27 29 31 31 33 37 39 39 39 39 41 45 48 49 51 55 58 60 63 64 61 60 61 60 58 59 62 64 66 65 62 60 58 54 55 56 55 55 56 57 59 59 61 64 67 69 75 83 85 80
11 11 11 11 11 10 10 10 10 10 10 10 11 11 12 12 12 12 12 10 12 16 17 21 28 29 24 23 24 24 24 25 27 27 29 30 30 31 32 34 37 39 42 44 46 46 45 46 50 52 53 54 56 57 59 61 60 59 61 62 60 58 58 60 63 67 67 65 63 59 55 56 59 58 58 59 62 64 64 64 69 71 71 71 75 74 69
12 12 11 11 10 10 9 9 8 8 8 8 9 10 10 11 12 12 13 11 11 15 15 17 23 25 23 23 24 25 25 25 26 29 31 33 34 35 37 39 41 43 45 47 48 49 49 51 54 57 57 57 55 54 56 56 55 58 61 60 59 60 58 58 59 61 61 60 60 60 61 63 63 63 63 63 65 67 66 67 68 67 67 65 64 65 64
12 11 10 10 9 9 8 9 8 8 9 9 10 11 11 14 16 17 17 15 15 19 18 19 22 23 24 26 26 28 30 29 29 31 32 35 37 38 40 44 45 46 48 48 48 51 53 53 55 57 58 58 55 53 53 53 53 56 58 54 53 54 53 51 52 52 52 55 57 59 62 63 62 64 63 62 63 64 63 64 62 61 65 65 62 64 65
10 10 10 9 10 10 10 11 11 11 11 11 12 13 14 16 18 19 19 19 21 24 23 24 26 27 29 31 30 33 36 34 33 34 34 36 37 37 40 45 49 52 52 49 50 53 53 53 55 57 58 60 58 54 53 53 52 52 50 45 41 43 46 44 41 38 39 45 49 52 55 58 59 60 60 59 60 61 60 60 59 61 66 65 61 62 63
10 10 11 11 12 12 12 12 12 12 12 12 12 14 14 16 18 19 19 21 24 26 26 26 27 29 32 35 34 36 38 36 36 37 36 37 38 38 42 47 51 55 54 52 53 53 49 49 53 57 58 58 57 54 50 47 44 41 40 35 30 30 35 37 35 31 32 37 42 45 48 53 55 56 58 58 59 59 59 60 61 61 62 62 60 61 61
12 12 12 12 12 12 11 12 12 12 12 12 12 13 14 15 16 17 19 22 23 25 25 25 28 31 33 33 33 36 38 37 38 39 37 37 38 39 43 46 48 50 50 50 49 46 44 44 45 49 51 49 49 46 43 40 37 35 35 33 28 24 28 36 36 31 33 38 39 40 44 48 52 54 56 57 58 59 60 60 61 61 60 60 60 61 63
12 12 12 12 12 12 12 12 12 12 13 12 12 13 14 15 15 15 19 24 24 24 24 26 31 34 33 33 33 34 36 36 36 36 36 36 37 39 41 41 40 41 43 43 41 39 39 39 38 41 42 40 40 38 37 39 38 36 36 36 34 30 31 39 36 27 30 36 37 39 40 43 50 54 54 56 58 59 60 61 62 63 62 61 61 62 64
12 12 13 13 12 13 13 13 14 14 14 13 13 13 13 15 16 15 17 22 25 27 28 28 29 29 28 32 33 32 33 34 32 30 32 35 37 37 38 36 35 37 37 37 35 34 35 35 35 37 36 34 34 33 35 37 36 37 39 38 38 38 36 39 34 25 27 33 36 39 40 42 50 53 52 55 59 59 60 61 62 62 62 63 64 64 63
12 13 13 13 13 14 14 14 15 15 14 14 13 14 14 14 16 15 17 22 24 26 29 29 28 27 28 32 33 31 32 35 32 29 30 34 35 34 32 31 33 34 34 32 31 30 31 32 32 31 29 29 30 30 30 31 31 33 34 33 36 39 38 39 34 27 31 35 35 38 41 43 49 50 50 55 60 60 59 60 61 60 59 62 64 63 62
13 13 13 13 13 14 14 14 14 14 15 14 14 14 14 15 16 14 17 23 25 26 28 29 28 30 32 33 33 32 33 35 35 32 31 32 31 30 28 28 30 31 29 28 28 26 26 27 27 27 26 27 29 28 28 28 28 27 27 27 31 34 36 38 35 31 35 38 34 33 36 42 49 51 52 56 58 58 57 58 61 60 57 60 64 64 64
13 13 13 13 13 13 13 13 14 14 14 14 14 15 15 15 16 15 16 23 29 29 29 28 29 31 33 33 32 31 31 32 32 29 28 27 27 28 27 26 27 26 25 26 25 24 26 28 28 28 27 28 30 30 30 30 28 25 25 25 26 29 33 34 32 32 34 35 34 33 35 43 52 54 56 57 58 58 55 54 58 59 58 61 65 67 67
12 12 13 13 13 13 12 13 13 13 14 14 14 15 15 15 16 15 15 21 30 32 28 27 31 34 34 32 30 27 26 25 25 24 24 24 25 25 24 24 23 23 23 24 23 23 27 30 32 31 29 30 33 31 31 32 29 27 26 25 25 30 32 29 27 31 34 36 39 38 37 43 52 57 58 57 57 57 56 55 58 60 60 61 64 66 67
12 12 13 13 13 13 12 12 13 13 13 14 14 14 14 14 14 15 13 18 28 31 28 28 33 35 33 29 26 25 26 26 24 23 22 23 23 22 21 21 22 22 22 23 24 26 26 26 31 33 30 32 35 31 30 30 29 28 27 26 27 29 30 29 30 36 41 40 41 43 40 40 49 58 58 54 54 57 57 58 61 61 60 61 63 66 67
13 13 13 13 13 13 12 12 13 13 14 14 14 14 13 13 13 14 13 14 21 26 26 28 30 31 30 26 23 25 27 28 26 23 22 22 20 20 20 21 21 23 22 21 23 29 27 25 30 33 31 30 32 30 29 29 29 28 27 27 30 32 35 37 38 42 46 43 42 46 45 42 49 58 56 51 54 56 55 56 59 60 60 61 63 66 67
13 13 13 13 13 12 12 12 13 13 13 14 14 13 13 13 12 13 12 12 17 23 25 26 27 27 27 26 25 26 25 26 25 22 21 20 19 19 20 20 21 22 21 22 26 30 30 29 31 33 32 31 30 30 30 31 31 30 28 30 35 38 40 39 38 41 47 48 46 47 45 45 53 58 54 50 52 55 57 58 57 59 61 63 65 68 68
13 14 14 13 13 12 12 13 13 14 14 14 14 13 13 13 12 13 12 11 17 23 24 22 23 24 24 24 25 25 23 23 23 22 22 21 19 19 19 19 22 21 19 24 31 32 29 29 30 31 30 29 28 28 29 31 32 33 33 35 39 43 44 42 41 44 49 51 48 43 42 49 57 55 51 51 52 54 60 62 59 60 63 65 67 69 70
14 14 14 13 13 12 12 12 13 13 14 15 14 13 13 13 13 13 12 11 15 21 22 20 21 21 21 21 22 22 21 22 21 22 24 22 19 20 20 20 21 20 19 25 31 32 28 27 29 31 32 31 31 30 30 31 33 35 37 35 37 42 44 45 46 46 48 53 52 43 40 48 54 51 48 51 55 58 60 59 60 62 64 66 68 69 69
14 14 14 13 12 12 12 12 13 13 14 15 14 13 13 13 13 13 12 11 14 19 22 21 20 20 20 20 20 20 20 21 21 21 23 21 19 21 21 19 20 21 22 25 28 30 28 27 29 31 32 35 35 31 31 34 35 35 37 38 39 40 39 43 48 47 48 53 53 45 43 47 49 50 50 51 54 58 56 55 59 62 64 66 68 68 67
14 14 13 13 12 12 12 12 12 13 14 14 14 13 13 13 13 12 11 10 11 16 21 21 20 20 20 19 20 20 19 20 20 20 22 21 21 22 20 18 20 24 26 25 25 27 28 29 31 29 29 33 33 29 32 37 37 35 37 40 42 41 39 43 49 51 52 56 53 47 47 49 49 50 52 52 53 54 54 54 57 59 62 65 66 65 64
14 14 13 12 12 12 12 11 12 13 14 15 14 13 12 12 12 11 11 10 11 15 19 20 20 20 20 20 19 19 19 19 18 19 20 21 21 22 20 20 22 24 25 24 23 24 27 29 29 29 29 31 33 34 35 35 35 36 37 36 38 40 39 42 47 49 51 52 48 44 45 47 48 50 52 52 51 51 52 53 55 58 61 63 63 64 63
14 13 13 12 12 12 11 11 12 12 14 15 14 13 12 12 12 11 11 10 12 15 18 19 19 19 19 19 19 18 18 18 18 18 19 19 20 21 21 21 24 23 23 24 23 23 26 28 27 28 29 31 35 38 34 31 36 41 39 35 37 40 41 43 48 50 46 42 42 42 43 45 48 49 50 50 49 49 50 52 55 58 60 61 62 63 63
13 13 13 12 12 12 11 10 11 12 13 14 14 13 13 12 12 12 11 11 11 14 18 18 18 19 20 18 19 19 17 18 18 18 19 19 18 19 20 21 22 22 22 23 23 22 24 26 26 26 27 28 34 36 31 30 38 41 38 38 40 41 42 45 49 50 45 41 42 44 43 44 47 48 49 49 48 47 49 51 54 57 58 60 62 63 61
12 12 12 12 12 12 11 10 11 12 13 13 13 13 12 12 12 11 11 11 10 13 18 20 19 19 20 18 18 18 17 18 18 17 18 19 18 18 19 20 20 21 21 21 23 22 23 24 27 30 29 27 31 34 31 30 32 34 38 43 43 40 42 47 50 51 47 42 41 42 42 44 47 48 48 48 47 48 49 51 53 55 57 59 61 62 59
12 12 12 12 12 12 11 11 11 12 13 13 13 13 12 12 11 11 11 12 11 11 17 22 20 18 18 18 17 18 17 17 18 17 17 19 18 19 19 18 19 20 19 19 21 20 21 24 28 32 31 28 29 34 35 32 30 33 38 42 39 39 44 48 48 50 49 44 41 42 45 47 48 48 48 48 47 49 50 52 53 54 56 58 61 61 56
12 12 12 12 12 13 12 12 12 12 13 13 12 13 12 11 11 11 11 12 12 12 16 20 19 18 18 18 18 18 18 17 18 18 17 18 18 19 19 19 20 19 19 20 20 19 21 25 26 28 30 29 30 34 35 33 32 36 40 40 40 42 47 49 49 50 50 46 43 45 49 50 50 50 50 49 48 50 51 53 54 55 57 60 62 60 54
11 12 12 12 12 12 13 13 14 13 13 13 13 13 12 11 10 11 11 11 11 12 14 17 17 16 17 17 17 18 18 18 17 18 18 18 18 18 19 19 20 20 20 20 20 21 23 26 26 28 29 29 29 32 34 33 35 37 38 38 39 40 43 47 49 49 47 43 42 45 49 51 52 52 51 49 49 50 51 53 55 57 59 62 63 59 51
12 12 12 11 11 11 11 12 14 14 14 15 14 14 13 11 10 11 12 11 10 11 13 16 17 16 16 17 18 18 18 18 18 18 18 18 18 18 18 19 19 19 20 19 20 22 25 27 28 29 29 30 31 33 34 36 40 37 32 32 35 37 39 42 44 44 43 42 44 47 49 52 54 53 51 49 49 50 52 54 56 57 60 64 63 55 48
12 12 12 11 11 10 10 11 13 14 14 15 15 14 13 12 11 11 12 12 11 11 12 15 17 17 16 17 18 18 17 18 19 19 19 19 18 18 18 19 19 19 19 19 20 23 26 28 30 31 31 31 32 34 35 39 41 36 29 28 31 35 38 40 42 43 44 45 46 48 50 53 55 52 48 47 48 50 53 55 55 57 62 65 61 51 45
12 12 12 11 11 10 10 11 12 13 14 15 15 14 14 13 11 11 11 12 12 11 12 14 16 17 16 15 16 16 17 17 18 18 19 19 19 19 18 18 19 19 20 20 21 23 26 28 29 31 32 31 32 35 37 39 40 36 30 27 30 35 38 41 43 44 46 46 47 49 52 55 55 51 47 46 49 52 54 53 55 58 63 64 57 49 45
13 13 12 12 11 10 10 11 11 12 14 15 15 15 15 14 12 11 11 12 12 12 13 15 18 18 17 16 15 14 16 17 17 17 18 18 19 20 19 19 20 19 20 21 23 25 27 28 28 30 31 31 33 37 38 37 37 35 29 27 30 34 38 41 44 46 47 48 49 51 54 56 55 50 47 48 51 54 53 53 55 60 62 61 54 48 46
13 12 12 12 12 11 11 11 11 12 13 14 15 15 15 15 14 12 11 11 12 12 13 15 19 20 18 16 16 14 15 17 17 16 16 17 18 19 20 20 20 20 20 22 24 26 28 29 29 30 32 31 32 37 38 35 33 30 27 28 32 34 38 42 45 47 49 50 51 53 56 57 55 50 49 51 53 54 53 54 57 60 60 56 52 48 46
13 13 13 13 12 11 11 11 11 12 12 14 15 15 16 16 16 15 14 12 12 13 13 15 21 22 18 17 19 16 14 16 16 15 16 17 18 18 20 21 21 20 20 23 25 27 30 30 30 32 34 34 33 36 36 33 29 27 28 31 32 34 38 42 45 49 51 53 53 55 58 57 54 50 50 52 53 53 53 54 57 59 58 53 50 47 45
13 13 13 13 12 12 12 11 12 13 13 14 15 15 16 17 16 16 17 15 13 14 13 15 21 23 21 22 24 20 16 16 17 16 17 18 18 18 20 21 20 21 22 24 26 28 30 31 31 33 35 35 35 38 37 31 26 27 30 32 32 35 38 42 45 50 53 55 55 57 58 57 53 51 52 53 52 51 52 53 55 57 55 50 47 45 44
14 13 14 13 13 13 13 12 13 13 13 14 15 15 16 17 17 17 18 17 16 16 15 16 22 25 23 22 23 19 17 18 18 17 18 19 19 19 20 21 21 23 25 26 27 29 31 31 31 34 37 35 35 34 31 27 26 29 30 32 34 35 37 42 47 52 55 56 57 57 57 55 53 52 54 54 51 49 50 52 54 54 51 47 46 44 43
14 14 14 14 13 14 14 14 14 14 14 14 15 15 16 16 17 17 18 18 19 18 17 19 24 26 24 24 23 21 21 23 21 19 20 21 20 20 21 22 24 25 26 27 28 29 31 31 32 37 39 36 32 29 26 26 28 30 31 33 34 35 37 42 49 53 56 58 57 55 56 56 54 54 55 53 48 46 47 49 50 49 46 45 45 44 41
14 14 14 14 14 14 15 14 14 15 15 15 15 16 16 16 17 17 18 18 19 19 19 22 25 26 27 28 26 25 25 27 26 24 23 24 23 22 23 24 26 26 27 29 29 29 29 32 38 42 40 33 28 28 28 29 29 30 32 33 34 35 37 43 49 54 58 58 56 54 56 57 55 54 54 50 45 44 45 46 46 45 44 44 44 43 41
14 14 14 14 14 14 15 15 15 15 15 15 16 17 18 17 17 18 18 18 19 20 21 22 25 27 29 30 30 29 29 30 30 30 29 28 27 25 25 26 26 26 27 28 26 25 27 32 38 42 39 33 29 28 29 29 29 31 33 34 34 35 38 43 49 54 57 56 56 56 57 58 56 54 51 47 43 42 43 43 43 43 43 43 44 43 41
15 14 14 14 13 13 14 14 14 15 15 15 15 16 17 18 19 19 19 20 20 21 21 23 24 25 27 30 32 33 32 31 31 33 34 32 31 31 32 32 29 28 31 32 29 28 28 31 36 39 38 34 31 29 29 30 31 32 34 35 34 36 40 43 48 53 56 56 57 58 58 58 56 52 47 45 43 42 41 40 41 42 42 43 43 43 41
15 15 15 15 14 14 14 14 14 14 14 15 15 16 18 19 20 21 21 22 23 22 23 23 24 24 26 28 31 33 33 33 34 36 37 35 33 34 36 35 32 32 35 37 37 37 35 34 38 41 38 32 30 31 32 32 33 34 35 36 36 37 41 44 48 52 55 57 58 59 59 59 55 50 45 44 43 41 40 40 40 41 42 43 44 44 42
14 15 15 15 14 15 14 14 14 14 14 14 15 17 19 20 21 22 22 22 22 22 23 23 24 24 26 27 29 31 33 34 35 38 40 38 35 35 37 36 35 34 36 39 43 45 42 41 44 45 39 31 31 34 35 35 35 35 36 36 37 39 42 45 47 51 55 57 58 59 60 59 54 49 45 44 43 42 41 40 40 41 42 44 45 45 44
14 15 15 15 15 14 14 14 14 14 16 17 17 17 19 21 22 23 24 23 23 23 23 24 24 25 26 27 28 30 33 34 37 40 41 38 36 37 38 38 37 35 35 40 47 49 49 50 52 48 39 33 34 38 39 37 37 37 37 37 39 41 43 46 48 51 55 58 59 60 60 59 55 50 46 44 44 43 41 40 41 41 42 44 46 47 45
14 14 15 15 15 14 14 14 14 14 16 18 18 17 18 21 24 26 24 24 24 23 23 23 24 25 26 27 28 30 33 35 38 39 38 37 39 41 40 40 41 39 37 41 48 51 52 53 52 46 40 38 39 42 42 40 38 38 38 38 40 42 45 47 48 51 55 59 60 61 60 59 56 51 47 46 45 43 43 42 41 41 42 44 47 48 47
13 14 14 14 15 14 14 15 16 15 15 18 20 21 21 22 24 25 24 23 23 24 24 24 25 25 27 28 29 30 32 34 35 36 36 36 39 41 39 40 44 44 43 45 47 46 48 51 50 45 42 43 45 46 46 42 39 39 40 40 41 44 46 48 49 52 55 59 61 61 61 60 57 52 49 47 46 44 44 44 42 41 42 44 47 48 49
13 14 14 14 15 15 15 16 18 17 17 17 20 21 20 19 19 20 20 20 22 24 25 25 25 26 27 29 29 30 32 33 34 35 36 37 39 41 40 40 42 43 44 45 45 45 48 51 48 45 45 48 50 51 48 43 40 40 41 41 43 46 48 49 50 52 56 60 62 62 63 62 59 55 51 49 47 45 45 45 44 42 42 44 46 48 49
14 15 15 16 16 17 18 18 17 17 17 17 17 17 17 17 17 18 20 21 23 24 25 26 26 27 28 29 30 31 33 34 35 35 36 37 40 42 42 41 43 45 44 43 46 51 53 49 44 44 48 52 54 53 50 45 42 42 41 42 45 48 49 50 51 53 56 60 64 64 64 64 62 58 55 51 48 46 46 47 46 43 43 44 46 48 48
15 16 17 17 17 18 18 18 18 17 18 18 18 18 17 17 18 19 20 22 23 24 25 27 27 28 29 30 31 31 33 34 34 34 35 37 39 41 41 42 44 47 47 47 50 56 54 46 42 45 50 53 55 55 51 46 44 44 42 43 46 49 50 51 52 54 57 61 65 66 66 65 65 62 59 55 51 48 47 47 47 45 44 45 47 48 48
17 18 18 18 18 18 18 19 20 20 19 19 19 19 19 18 18 19 21 22 23 24 26 27 28 29 29 30 31 32 33 33 32 32 35 37 39 42 43 43 44 49 54 55 55 54 50 45 45 48 50 52 56 56 52 48 47 45 44 45 47 50 51 52 53 54 58 62 66 68 68 67 66 65 63 60 56 50 48 48 48 47 46 46 47 48 48
18 19 19 19 19 20 19 20 22 22 21 20 19 20 20 19 19 20 22 22 23 24 26 27 28 30 29 29 30 31 32 33 33 33 35 38 40 41 42 45 49 56 59 56 52 49 47 46 48 49 51 53 56 56 53 50 49 47 45 46 48 50 51 52 53 55 58 62 67 69 69 69 68 68 67 66 61 54 49 49 49 49 48 47 48 49 49
20 20 19 19 20 20 19 20 21 22 21 21 20 20 21 20 19 20 22 23 23 24 25 27 28 30 30 29 29 28 29 32 35 35 36 39 40 41 43 48 53 55 54 50 47 47 48 49 50 51 52 54 55 55 53 52 50 48 47 48 49 51 52 53 55 57 59 63 68 71 71 70 70 70 70 70 66 58 52 50 51 50 49 48 48 49 50
20 20 20 20 20 20 20 20 20 21 21 21 21 22 22 21 20 21 22 23 24 25 24 25 28 31 31 30 29 29 31 33 34 36 38 40 39 39 42 47 50 49 48 47 47 48 49 51 52 54 54 55 55 54 53 52 51 50 49 49 50 52 53 54 56 58 60 64 68 72 72 72 72 72 72 73 71 64 56 52 52 52 51 50 50 50 51